This is the latest recevied weather packets stored in our database for station/object N8WJW. If no packets are shown the sender has not sent any weather packets the latest 10 day(s).
| Time | Temp. | Humidity | Pressure | Rain* | Wind** | Luminosity | Snow |
|---|---|---|---|---|---|---|---|
| 1777574868 | 10.56° C | 65% | 1015.3 hPa | 0 mm | - | 502 W/m² | - |
| 1777574566 | 10° C | 65% | 1015.2 hPa | 0 mm | - | 434 W/m² | - |
| 1777574262 | 10° C | 66% | 1015.3 hPa | 0 mm | - | 668 W/m² | - |
| 1777573956 | 9.44° C | 72% | 1015.3 hPa | 0 mm | - | 549 W/m² | - |
| 1777573646 | 9.44° C | 71% | 1015.4 hPa | 0 mm | - | 315 W/m² | - |
| 1777573342 | 9.44° C | 72% | 1015.4 hPa | 0 mm | - | 205 W/m² | - |
| 1777573037 | 8.89° C | 73% | 1015.3 hPa | 0 mm | - | 430 W/m² | - |
| 1777572734 | 8.33° C | 75% | 1015.5 hPa | 0 mm | - | 167 W/m² | - |
| 1777572430 | 8.89° C | 74% | 1015.3 hPa | 0 mm | - | 503 W/m² | - |
| 1777572126 | 10° C | 75% | 1015.4 hPa | 0 mm | - | 638 W/m² | - |
| 1777571821 | 9.44° C | 75% | 1015.2 hPa | 0 mm | - | 297 W/m² | - |
| 1777571518 | 8.89° C | 72% | 1015.3 hPa | 0 mm | - | 474 W/m² | - |
| 1777571214 | 8.89° C | 75% | 1015.5 hPa | 0 mm | - | 533 W/m² | - |
| 1777570910 | 8.33° C | 75% | 1015.5 hPa | 0 mm | - | 263 W/m² | - |
| 1777570606 | 8.89° C | 75% | 1015.4 hPa | 0 mm | - | 253 W/m² | - |
| 1777570304 | 8.33° C | 79% | 1015.4 hPa | 0 mm | - | 244 W/m² | - |
| 1777569999 | 7.78° C | 79% | 1015.4 hPa | 0 mm | - | 240 W/m² | - |
| 1777569695 | 7.78° C | 77% | 1015.3 hPa | 0 mm | - | 251 W/m² | - |
| 1777569391 | 7.78° C | 80% | 1015.5 hPa | 0 mm | - | 169 W/m² | - |
| 1777569087 | 7.78° C | 78% | 1015.4 hPa | 0 mm | - | 151 W/m² | - |
| 1777568784 | 7.22° C | 78% | 1015.4 hPa | 0 mm | - | 144 W/m² | - |
| 1777568482 | 7.78° C | 78% | 1015.4 hPa | 0 mm | - | 149 W/m² | - |
| 1777568178 | 8.33° C | 75% | 1015.3 hPa | 0 mm | - | 167 W/m² | - |
| 1777567875 | 8.33° C | 75% | 1015.2 hPa | 0 mm | - | 207 W/m² | - |
| 1777567571 | 8.33° C | 75% | 1015.4 hPa | 0 mm | - | 268 W/m² | - |
* Rain latest hour (hover to see other rain measurements)
** Current wind speed in m/s (hover to see current wind gust speed)